[[{"header":{"parameterUnit":"m.s-1","parameterCategory":1,"la1":30.2991,"la2":30.254,"lo1":-89.0895,"lo2":-89.0444,"dy":0.0017,"dx":0.0017,"nx":28,"ny":28,"refTime":"2025-04-13T03:00:00:Z","depth":0,"parameterNumber":2,"parameterNumberName":"U-component_of_WINDS"},"data":[0,0,0,0,0,0,0,0,0,0,0,0,0,0,0,0,0,0,0,0,0,0,0,0,0,0,0,0,0,0,0,0,0,0,0,0,0,0,0,0,0,0,0,0,0,0,0,0,0,0,0,0,0,0,0,0,0,0,-1.2471,-1.2471,0,-1.2472,-1.2472,-1.2472,-1.241,-1.2408,-1.2407,-1.2405,-1.2408,-1.2409,-1.2411,0,0,0,0,0,0,0,0,0,0,0,0,0,-1.2415,-1.2417,-1.2471,-1.2471,-1.2471,-1.2472,-1.2472,-1.2472,-1.241,-1.2408,-1.2406,-1.2404,-1.2407,-1.2409,-1.2411,0,0,0,0,0,0,0,0,0,0,0,0,0,-1.243,-1.2417,-1.2471,-1.244,-1.2437,-1.2472,-1.2472,-1.2472,-1.2411,-1.2408,-1.2406,-1.2403,-1.2407,-1.2409,-1.2411,-1.2476,0,0,-1.2419,-1.242,0,0,0,0,0,0,0,0,-1.243,-1.2432,-1.2444,-1.2442,-1.2439,-1.2438,-1.2453,-1.2473,-1.2411,-1.2421,-1.2405,-1.2402,-1.242,-1.2421,-1.2427,-1.2476,-1.2476,-1.2419,-1.242,-1.2421,-1.2422,0,0,0,0,0,0,0,-1.2429,-1.2432,-1.2471,-1.2445,-1.2441,-1.2426,-1.2426,-1.2457,-1.2434,-1.242,-1.2415,-1.2416,-1.2418,-1.2425,-1.2426,-1.2476,-1.2419,-1.2421,-1.2422,-1.2423,-1.2578,-1.258,0,0,0,0,0,0,-1.2432,-1.2432,-1.2471,-1.2471,-1.2428,-1.2429,-1.2429,-1.2441,-1.2434,-1.243,-1.2418,-1.2413,-1.2422,-1.2424,-1.2426,-1.2501,-1.2421,-1.2424,-1.2425,-1.2575,-1.2579,-1.2581,0,0,0,0,0,0,-1.2431,-1.2436,-1.2471,-1.245,-1.2453,-1.2433,-1.2447,-1.2442,-1.2449,-1.2433,-1.2428,-1.2429,-1.242,-1.2423,-1.2464,-1.2501,-1.2425,-1.2427,-1.2572,-1.2576,-1.258,-1.2652,0,0,0,0,0,0,-1.2429,-1.2436,-1.246,-1.2451,-1.2455,-1.2509,-1.245,-1.2444,-1.2453,-1.2447,-1.2442,-1.2439,-1.2418,-1.2461,-1.2466,-1.2503,-1.2429,-1.2569,-1.2574,-1.2579,-1.2647,-1.2658,-1.2668,0,0,0,0,0,-1.2428,-1.248,-1.2461,-1.2467,-1.2485,-1.2511,-1.2513,-1.2488,-1.2456,-1.2481,-1.247,-1.2439,-1.2496,-1.2465,-1.2471,-1.2509,-1.2566,-1.2573,-1.2578,-1.2642,-1.2656,-1.2668,0,0,0,0,0,0,-1.2495,-1.2479,-1.2458,-1.2509,-1.2512,-1.25,-1.253,-1.2504,-1.2516,-1.2509,-1.2478,-1.2478,-1.2524,-1.252,-1.2487,-1.2571,-1.2525,-1.2533,-1.2572,-1.2585,-1.2596,-1.2596,-1.2431,0,0,0,0,0,-1.2515,-1.2538,-1.2523,-1.257,-1.2572,-1.2551,-1.2561,-1.2542,-1.2544,-1.2545,-1.2537,-1.254,-1.2558,-1.2571,-1.2587,-1.2645,-1.2644,-1.2674,-1.2685,-1.2694,-1.2701,-1.2732,-1.2745,-1.2601,-1.2601,-1.2601,0,0,-1.2558,-1.2552,-1.2569,-1.2583,-1.2583,-1.2607,-1.2552,-1.258,-1.2598,-1.2549,-1.2587,-1.2582,-1.2583,-1.2633,-1.2654,-1.2631,-1.274,-1.2702,-1.2709,-1.2711,-1.2739,-1.2753,-1.2765,-1.2605,-1.2604,-1.2604,0,0,-1.2649,-1.2647,-1.2686,-1.2687,-1.2687,-1.2672,-1.2682,-1.2674,-1.2669,-1.2706,-1.267,-1.2691,-1.2723,-1.2726,-1.2731,-1.2823,-1.2795,-1.2829,-1.2886,-1.2916,-1.2928,-1.2937,-1.2971,-1.2983,-1.2836,-1.2836,-1.2836,0,-1.2703,-1.2738,-1.2709,-1.274,-1.2747,-1.2703,-1.2742,-1.2745,-1.275,-1.2757,-1.2731,-1.277,-1.2768,-1.2818,-1.284,-1.2846,-1.2856,-1.283,-1.2928,-1.2938,-1.2947,-1.2978,-1.299,-1.284,-1.284,-1.2839,-1.2839,0,-1.2804,-1.2828,-1.286,-1.2866,-1.2877,-1.2912,-1.2889,-1.2903,-1.2883,-1.2871,-1.291,-1.2906,-1.2921,-1.2931,-1.2911,-1.2978,-1.2964,-1.2934,-1.2887,-1.2965,-1.2994,-1.3006,-1.2846,-1.2845,-1.2844,-1.2843,0,0,-1.2938,-1.2927,-1.2939,-1.2942,-1.2938,-1.2957,-1.299,-1.3003,-1.3017,-1.3022,-1.3049,-1.3077,-1.3049,-1.3055,-1.3036,-1.3062,-1.3135,-1.3028,-1.3028,-1.3049,-1.3209,-1.3232,-1.3246,-1.3116,-1.3118,-1.312,-1.3209,0,-1.3026,-1.3081,-1.3056,-1.3114,-1.3137,-1.3095,-1.3124,-1.3125,-1.3115,-1.3133,-1.3122,-1.3143,-1.3104,-1.3107,-1.3132,-1.3121,-1.3167,-1.3114,-1.3141,-1.3143,-1.3143,-1.3261,-1.3286,-1.337,-1.322,-1.3222,-1.3223,0,-1.3137,-1.3146,-1.3207,-1.3199,-1.3208,-1.3234,-1.3244,-1.3262,-1.3262,-1.3253,-1.326,-1.3235,-1.3266,-1.322,-1.3264,-1.3228,-1.3238,-1.3234,-1.3237,-1.3239,-1.3188,-1.3267,-1.3396,-1.3409,-1.3241,-1.3239,-1.3238,0,-1.3229,-1.3257,-1.3296,-1.3299,-1.3292,-1.3311,-1.3309,-1.3307,-1.3317,-1.3326,-1.3332,-1.3345,-1.3353,-1.3364,-1.3342,-1.331,-1.3389,-1.3341,-1.3382,-1.3383,-1.3401,-1.34,-1.3534,-1.3407,-1.3407,-1.3406,-1.3406,0,-1.333,-1.3369,-1.3337,-1.3362,-1.3404,-1.3375,-1.3417,-1.341,-1.3409,-1.3432,-1.3397,-1.3419,-1.3389,-1.3408,-1.3391,-1.343,-1.3433,-1.3427,-1.3422,-1.343,-1.3431,-1.3437,-1.343,-1.341,-1.3409,-1.3408,-1.3408,0,-1.344,-1.3421,-1.3461,-1.345,-1.3449,-1.348,-1.3471,-1.3493,-1.3481,-1.351,-1.3515,-1.3495,-1.3516,-1.3495,-1.3515,-1.3504,-1.3556,-1.3542,-1.3556,-1.3552,-1.3595,-1.3591,-1.3737,-1.3755,-1.3616,-1.3617,-1.3618,0,-1.3507,-1.3535,-1.3528,-1.354,-1.354,-1.356,-1.357,-1.3543,-1.3554,-1.3557,-1.3579,-1.3597,-1.361,-1.3645,-1.3632,-1.3647,-1.3634,-1.3684,-1.3636,-1.3643,-1.3635,-1.3634,-1.3636,-1.3694,-1.3696,-1.3697,-1.3698,0,-1.3627,-1.3616,-1.3631,-1.3643,-1.3655,-1.3664,-1.3669,-1.3681,-1.3653,-1.3668,-1.3689,-1.3698,-1.3718,-1.3736,-1.3747,-1.3745,-1.3717,-1.3713,-1.3724,-1.3732,-1.3739,-1.3736,-1.3583,-1.371,-1.3709,-1.3708,-1.3707,-1.3707,-1.3717,-1.3741,-1.3739,-1.3757,-1.3758,-1.3764,-1.3784,-1.3774,-1.3791,-1.3804,-1.3787,-1.3813,-1.3812,-1.3824,-1.3825,-1.3845,-1.3824,-1.3839,-1.3843,-1.3847,-1.3854,-1.3736,-1.3847,-1.3846,-1.3846,-1.3846,-1.3846,0,-1.3835,-1.3832,-1.3849,-1.3858,-1.3872,-1.3844,-1.3849,-1.3863,-1.3885,-1.3887,-1.39,-1.3924,-1.3941,-1.393,-1.3945,-1.3963,-1.3951,-1.3968,-1.3966,-1.3966,-1.3872,-1.3861,-1.3977,-1.3977,-1.3977,-1.3977,-1.3977,-1.3977,-1.3899,-1.3937,-1.3926,-1.3964,-1.396,-1.3985,-1.399,-1.3995,-1.3997,-1.4025,-1.4039,-1.4031,-1.4028,-1.4042,-1.4057,-1.4053,-1.406,-1.4082,-1.4074,-1.3986,-1.3973,-1.3961,-1.3951,-1.4084,-1.4084,-1.4167,-1.4168,-1.4168]},{"header":{"parameterUnit":"m.s-1","parameterCategory":1,"la1":30.2991,"la2":30.254,"lo1":-89.0895,"lo2":-89.0444,"dy":0.0017,"dx":0.0017,"nx":28,"ny":28,"refTime":"2025-04-13T03:00:00:Z","depth":0,"parameterNumber":3,"parameterNumberName":"V-component_of_WINDS"},"data":[0,0,0,0,0,0,0,0,0,0,0,0,0,0,0,0,0,0,0,0,0,0,0,0,0,0,0,0,0,0,0,0,0,0,0,0,0,0,0,0,0,0,0,0,0,0,0,0,0,0,0,0,0,0,0,0,0,0,-2.3684,-2.3685,0,-2.3786,-2.3787,-2.3789,-2.3789,-2.3788,-2.3787,-2.3786,-2.3886,-2.389,-2.3894,0,0,0,0,0,0,0,0,0,0,0,0,0,-2.3485,-2.3489,-2.3684,-2.3685,-2.3686,-2.3786,-2.3787,-2.3789,-2.379,-2.3788,-2.3786,-2.3785,-2.3885,-2.389,-2.3894,0,0,0,0,0,0,0,0,0,0,0,0,0,-2.3578,-2.349,-2.3684,-2.3699,-2.3701,-2.3786,-2.3788,-2.3789,-2.379,-2.3788,-2.3786,-2.3784,-2.3884,-2.3889,-2.3895,-2.397,0,0,-2.3913,-2.3915,0,0,0,0,0,0,0,0,-2.3573,-2.3585,-2.3695,-2.3698,-2.3701,-2.3773,-2.3754,-2.385,-2.379,-2.3756,-2.3786,-2.3783,-2.385,-2.3858,-2.3882,-2.3975,-2.3979,-2.3913,-2.3917,-2.3919,-2.3921,0,0,0,0,0,0,0,-2.3566,-2.3581,-2.3724,-2.3697,-2.37,-2.3699,-2.371,-2.3772,-2.3813,-2.3759,-2.3759,-2.3772,-2.3851,-2.3876,-2.3884,-2.398,-2.3913,-2.3918,-2.3922,-2.3924,-2.414,-2.4142,0,0,0,0,0,0,-2.3557,-2.3575,-2.3721,-2.3727,-2.3631,-2.3705,-2.3717,-2.3752,-2.3812,-2.3819,-2.3773,-2.3771,-2.3867,-2.3877,-2.3888,-2.398,-2.3919,-2.3925,-2.3928,-2.4137,-2.414,-2.4143,0,0,0,0,0,0,-2.3553,-2.357,-2.3717,-2.3652,-2.367,-2.371,-2.3749,-2.3755,-2.378,-2.3823,-2.3829,-2.3792,-2.3866,-2.388,-2.395,-2.3983,-2.3927,-2.3933,-2.4135,-2.4138,-2.4141,-2.4164,0,0,0,0,0,0,-2.3547,-2.3569,-2.3598,-2.3652,-2.3674,-2.3778,-2.3751,-2.3758,-2.3791,-2.3789,-2.3842,-2.3849,-2.3866,-2.3941,-2.3956,-2.399,-2.3937,-2.4132,-2.4136,-2.414,-2.416,-2.4167,-2.4173,0,0,0,0,0,-2.354,-2.36,-2.36,-2.3617,-2.3712,-2.378,-2.3792,-2.3812,-2.3793,-2.3823,-2.385,-2.3847,-2.3977,-2.3948,-2.3965,-2.4001,-2.413,-2.4135,-2.414,-2.4157,-2.4166,-2.4173,0,0,0,0,0,0,-2.3547,-2.3607,-2.3608,-2.3687,-2.3729,-2.378,-2.3818,-2.382,-2.3867,-2.3864,-2.3884,-2.3896,-2.3966,-2.3991,-2.3958,-2.4077,-2.4051,-2.406,-2.4058,-2.4067,-2.4074,-2.4066,-2.3942,0,0,0,0,0,-2.3558,-2.361,-2.3659,-2.3724,-2.3745,-2.3778,-2.3809,-2.382,-2.3864,-2.3881,-2.3913,-2.3955,-2.4005,-2.4037,-2.4086,-2.4164,-2.4175,-2.4197,-2.4203,-2.4209,-2.4216,-2.4258,-2.4269,-2.4159,-2.4159,-2.4159,0,0,-2.3581,-2.362,-2.3651,-2.3726,-2.376,-2.3812,-2.3793,-2.3849,-2.3887,-2.3889,-2.3958,-2.3983,-2.403,-2.4105,-2.4139,-2.4127,-2.4249,-2.4215,-2.4219,-2.4223,-2.4265,-2.4275,-2.4284,-2.4162,-2.4162,-2.4161,0,0,-2.3649,-2.3684,-2.3742,-2.3777,-2.3829,-2.385,-2.3864,-2.3916,-2.3933,-2.4003,-2.4005,-2.4051,-2.4137,-2.4171,-2.4199,-2.428,-2.4279,-2.4295,-2.433,-2.4372,-2.438,-2.4388,-2.4417,-2.4427,-2.4302,-2.4302,-2.4302,0,-2.367,-2.375,-2.3771,-2.3828,-2.3861,-2.3866,-2.3924,-2.3956,-2.4021,-2.4042,-2.4029,-2.4137,-2.4169,-2.4252,-2.4272,-2.4295,-2.431,-2.4289,-2.4378,-2.4386,-2.4393,-2.4421,-2.4432,-2.4304,-2.4304,-2.4304,-2.4303,0,-2.3774,-2.3829,-2.387,-2.3934,-2.3971,-2.4028,-2.4056,-2.4091,-2.4099,-2.4122,-2.4193,-2.4232,-2.4288,-2.4309,-2.4316,-2.4392,-2.4383,-2.4373,-2.4348,-2.4405,-2.4431,-2.4442,-2.4306,-2.4306,-2.4305,-2.4305,0,0,-2.3849,-2.3924,-2.3939,-2.3968,-2.4026,-2.4068,-2.4125,-2.4182,-2.4211,-2.4256,-2.4303,-2.4376,-2.4368,-2.44,-2.4412,-2.4448,-2.451,-2.4434,-2.4435,-2.4446,-2.4595,-2.4602,-2.4614,-2.4509,-2.4511,-2.4513,-2.4591,0,-2.3923,-2.4026,-2.4047,-2.4136,-2.4187,-2.4193,-2.4242,-2.4282,-2.4305,-2.4351,-2.4375,-2.4427,-2.4412,-2.4431,-2.4468,-2.4495,-2.454,-2.4489,-2.4553,-2.4555,-2.4541,-2.4628,-2.4636,-2.4708,-2.4602,-2.4603,-2.4605,0,-2.4024,-2.4072,-2.4166,-2.4218,-2.424,-2.4284,-2.4338,-2.4382,-2.4427,-2.4441,-2.4478,-2.4486,-2.4544,-2.4516,-2.4596,-2.4561,-2.4588,-2.4605,-2.4609,-2.4615,-2.4583,-2.4637,-2.4731,-2.4742,-2.4621,-2.462,-2.4619,0,-2.4069,-2.4157,-2.4225,-2.425,-2.4312,-2.4343,-2.4369,-2.4413,-2.4446,-2.4492,-2.4514,-2.4566,-2.4594,-2.4634,-2.4655,-2.4633,-2.4734,-2.4707,-2.4746,-2.4746,-2.4767,-2.4765,-2.4867,-2.4785,-2.4784,-2.4784,-2.4784,0,-2.415,-2.4207,-2.4247,-2.4288,-2.4353,-2.4375,-2.4438,-2.4464,-2.4503,-2.4549,-2.4556,-2.4599,-2.4625,-2.4671,-2.4688,-2.4752,-2.4764,-2.4776,-2.478,-2.4776,-2.4774,-2.4794,-2.4789,-2.4787,-2.4786,-2.4786,-2.4785,0,-2.4211,-2.424,-2.4314,-2.4367,-2.4382,-2.4427,-2.4471,-2.4511,-2.4534,-2.4592,-2.4607,-2.4643,-2.4698,-2.4723,-2.479,-2.4802,-2.4874,-2.4874,-2.4859,-2.4861,-2.4898,-2.4894,-2.5015,-2.5032,-2.4939,-2.494,-2.4941,0,-2.426,-2.4305,-2.4363,-2.4395,-2.4423,-2.4475,-2.4509,-2.4532,-2.4567,-2.4623,-2.4656,-2.4711,-2.4757,-2.4844,-2.4875,-2.4927,-2.4928,-2.4967,-2.4936,-2.493,-2.4928,-2.4926,-2.493,-2.4972,-2.4973,-2.4974,-2.4975,0,-2.4345,-2.4358,-2.4407,-2.4462,-2.4503,-2.4546,-2.4589,-2.4615,-2.4645,-2.4684,-2.4741,-2.4776,-2.4846,-2.49,-2.4954,-2.498,-2.4982,-2.4985,-2.4996,-2.4992,-2.4981,-2.4988,-2.4875,-2.4981,-2.4981,-2.498,-2.498,-2.498,-2.4402,-2.4442,-2.4489,-2.4544,-2.4579,-2.4619,-2.466,-2.4689,-2.4737,-2.4797,-2.4807,-2.4868,-2.4911,-2.4984,-2.5012,-2.5059,-2.505,-2.5067,-2.5071,-2.5075,-2.5077,-2.4974,-2.5069,-2.5069,-2.5068,-2.5068,-2.5068,0,-2.4487,-2.4518,-2.4569,-2.4629,-2.4672,-2.4672,-2.472,-2.4755,-2.4809,-2.485,-2.4896,-2.4961,-2.5014,-2.505,-2.5103,-2.5134,-2.5136,-2.5147,-2.5145,-2.5151,-2.5082,-2.5067,-2.5144,-2.5144,-2.5144,-2.5144,-2.5144,-2.5144,-2.4537,-2.4604,-2.4622,-2.4707,-2.4737,-2.4798,-2.4825,-2.4862,-2.4895,-2.4968,-2.5013,-2.5036,-2.5075,-2.5132,-2.518,-2.5189,-2.5208,-2.522,-2.5228,-2.5163,-2.5155,-2.5148,-2.5134,-2.5224,-2.5224,-2.5293,-2.5294,-2.5294]}]]